Regional Weather Roundup
Issued by NWS

Home | Current Version | Previous Version | Graphics & Text | Print | Product List | Glossary On
Versions: 1 2 3 4 5 6 7 8 9 10 11 12 13 14 15 16 17 18 19 20 21 22 23 24 25 26 27 28 29 30 31 32 33 34 35 36 37 38 39 40 41 42 43 44 45 46 47 48 49 50
000
ASUS43 KMKX 231511
RWRWI

WISCONSIN REGIONAL WEATHER ROUNDUP
NATIONAL WEATHER SERVICE MILWAUKEE/SULLIVAN WI
900 AM CST SUN NOV 23 2014

NOTE: "FAIR" INDICATES FEW OR NO CLOUDS BELOW 12,000 FEET WITH NO
SIGNIFICANT WEATHER AND/OR OBSTRUCTIONS TO VISIBILITY.

WIZ001-002-006>008-014>016-023>028-231600-
NORTHWEST WISCONSIN

CITY           SKY/WX    TMP DP  RH WIND       PRES   REMARKS
SUPERIOR ARPT  FOG       37  37 100 CALM      29.45R VSB<1/4
ASHLAND        CLOUDY    47  44  90 S6        29.45S
HAYWARD        LGT RAIN  44  43  96 S13       29.47R VSB 1/4
SIREN          FOG       44  44  98 S6        29.46R VSB 1/2
CUMBERLAND     FOG       39  37  93 S9        29.47S VSB<1/4 WCI  33
RICE LAKE      FOG       42  41  97 SE6       29.51R VSB<1/4
CHETEK         FOG       45  45 100 SE5       29.50S VSB<1/4
LADYSMITH      FOG       45  44  97 S7        29.52R VSB<1/4
EAU CLAIRE     CLOUDY    48  46  93 S7        29.51R FOG
MENOMONIE      CLOUDY    48  48  98 S5        29.49F FOG
NEW RICHMOND   FOG       45  45 100 S8        29.47F VSB<1/4
OSCEOLA        FOG       43  43 100 S7        29.49S VSB<1/4
$$

WIZ003>005-009-010-017-018-231600-
NORTH CENTRAL WISCONSIN

CITY           SKY/WX    TMP DP  RH WIND       PRES   REMARKS
MANITOWISH WTR FOG       41  41 100 S9        29.49S VSB<1/4
ARBOR VITAE    SNOW      44  43  96 S9        29.51S VSB<1/4
WOODRUFF       SNOW      44  43  96 S9        29.51S VSB<1/4
RHINELANDER    FOG       43  43 100 S10       29.54S VSB 1/4
EAGLE RIVER    FOG       43  43 100 S8        29.52S VSB 1/4
LAND O LAKES   FOG       44  44 100 S6        29.52R VSB 1/4
PHILLIPS       FOG       43  43 100 S13       29.50S VSB<1/4
TOMAHAWK       FOG       43  42  97 CALM      29.54S VSB<1/4
MEDFORD        FOG       40  40 100 S8        29.53S VSB<1/4 WCI  34
MERRILL        CLOUDY    45  45 100 S6        29.55S FOG
$$

WIZ029-030-035-036-043>047-231600-
CENTRAL WISCONSIN

CITY           SKY/WX    TMP DP  RH WIND       PRES   REMARKS
WAUSAU         FOG       44  44 100 S13       29.55S VSB 3/4
MOSINEE        DRZL/FOG  45  45 100 S10       29.57S VSB 1/8
MARSHFIELD     FOG       45  45 100 S7        29.55S VSB<1/4
STEVENS POINT  CLOUDY    45  45 100 S12G18    29.58S FOG
WAUPACA        CLOUDY    50  49  95 S6        29.60F FOG
WAUTOMA        CLOUDY    49  49 100 S7        29.61S FOG
WISC RAPIDS    CLOUDY    48  46  93 S9        29.59S
CAMP DOUGLAS   CLOUDY    50  50 100 S7        29.57S
$$

WIZ011>013-019>022-031-037>040-048>050-231600-
NORTHEAST WISCONSIN

CITY           SKY/WX    TMP DP  RH WIND       PRES   REMARKS
ANTIGO         FOG       39  39 100 S8        29.57S VSB<1/4 WCI  34
SHAWANO        CLOUDY    48  47  95 S7        29.61S FOG
OCONTO         CLOUDY    43  43 100 S9        29.63R
STURGEON BAY   CLOUDY    45  43  93 S14G21    29.65S VSB 1/2
GREEN BAY      CLOUDY    48  46  93 S10       29.63S FOG
MANITOWOC      FOG       45  45 100 S20       29.67S VSB 3/4
APPLETON       FOG       45  45 100 S10       29.63S VSB 1/4
CLINTONVILLE   CLOUDY    45  45 100 S7        29.60F FOG
OSHKOSH        CLOUDY    48  46  93 S15       29.63F FOG
$$

WIZ032>034-041-042-053>061-231600-
SOUTHWEST WISCONSIN

CITY           SKY/WX    TMP DP  RH WIND       PRES   REMARKS
LA CROSSE      CLOUDY    51  48  89 S12       29.54S
SPARTA         CLOUDY    50  49  96 S8        29.57S
VIROQUA        CLOUDY    48  48 100 S8        29.56S VSB 1
BOSCOBEL       CLOUDY    53  49  86 S9G21     29.59R
PRAIRIE DU CHI CLOUDY    51  48  92 SE8       29.57S FOG
PLATTEVILLE    CLOUDY    49  49  98 S17       29.60F
$$

WIZ056-057-062-063-064-067-068-231600-
SOUTH CENTRAL WISCONSIN

CITY           SKY/WX    TMP DP  RH WIND       PRES   REMARKS
REEDSBURG      CLOUDY    49  48  97 S7        29.59S
BARABOO/DELLS  CLOUDY    48  46  93 S7        29.60R FOG
LONE ROCK      CLOUDY    55  48  77 S9        29.61S
MINERAL POINT  CLOUDY    50  48  93 S13       29.60F FOG
MADISON        CLOUDY    50  47  89 S14       29.63F FOG
MIDDLETON      CLOUDY    50  50  99 S8        29.63S
WATERTOWN      CLOUDY    47  47 100 S10       29.65F FOG
MONROE         LGT RAIN  46  46 100 S16G22    29.64S
JANESVILLE     LGT RAIN  48  46  93 S12       29.67F
$$

WIZ051-052-058>065-066-070>072-231600-
SOUTHEAST WISCONSIN

CITY           SKY/WX    TMP DP  RH WIND       PRES   REMARKS
MILWAUKEE      CLOUDY    50  43  77 S14       29.70F
WAUKESHA       CLOUDY    46  46 100 S5        29.70  FOG
MILWAUKEE/TIMM CLOUDY    48  45  87 S12       29.69F
RACINE         CLOUDY    50  44  80 S12G20    29.72F
BURLINGTON     CLOUDY    47  43  85 S12       29.69F
KENOSHA        LGT RAIN  49  45  86 S14       29.71F
FOND DU LAC    CLOUDY    50  46  86 S13       29.63F
SHEBOYGAN      FOG       45  44  97 S7        29.67F VSB 1/2
WEST BEND      CLOUDY    48  45  87 S10       29.65F FOG
JUNEAU         FOG       47  47  98 S14       29.65F VSB 1
$$

LSZ147-162-231600-
LAKE SUPERIOR

STATION/POSITION TIME  TEMP    WIND        PRES    WAVE
                       AIR SEA DIR/SP/G            HT/PER
                 (UTC) (F)     (DEG/KT/KT) (MB)    (FT/S)
DEVILS ISLAND    1500   43     210/  2/  3  997.3F
PORT WING        1400   37      CALM  /  1  997.3R
SAXON HARBOR     1440   50     190/  5/ 15  997.0R
$$

LMZ867-665-643>646-231600-
LAKE MICHIGAN

STATION/POSITION TIME  TEMP    WIND        PRES    WAVE
                       AIR SEA DIR/SP/G            HT/PER
                 (UTC) (F)     (DEG/KT/KT) (MB)    (FT/S)
CHAMBERS ISLAND  1400   47     130/  8/ 13 1003.7F
N MID LAKE BUOY  1450   44 42  200/ 21/ 27 1004.2F   6/ 6
NORTHPORT PIER   1400   44     170/  6/ 15 1004.1F
SISTER BAY       1443          180/ 20/ 24   N/A
ALGOMA LAKESHORE 1443          220/ 13/ 15   N/A
KEWAUNEE LAKESHO 1400   40     180/ 10/ 12 1004.0R
SHEBOYGAN LAKESH 1500   44 39  180/ 16/ 17 1005.1F
PORT WASHINGTON  1400   44     200/  6/  9 1006.8R
ATWATER BUOY     1400   50      90/  2/  2 1006.8F
MILWAUKEE LAKESH 1400   48     200/ 12/ 14   N/A
S MID LAKE BUOY  1450   45 43  170/ 16/ 17 1007.6F   3/ 5
KENOSHA   LAKESH 1500   50     200/ 10/ 14 1006.4F
$$

TC  - TEMPERATURE IN CELSIUS
VSB - VISIBILITY IN STATUTE MILES
WCI - WIND CHILL INDEX
HX  - HEAT INDEX



USA.gov is the U.S. government's official web portal to all federal, state and local government web resources and services.